Flag for Austria Weather past 2 weeks in Linz, Upper Austria, Austria

Now
59 °F

Sprinkles. Passing clouds.


Feels Like: 59 °F
Forecast: 51 / 67 °F
Wind: 5 mph from West

Location: Linz / Hoersching-Flughafen

Current Time: Aug 20, 2014 at 7:02:12 AM

Latest Report: Aug 20, 2014 at 6:20 AM


Visibility: N/A

Pressure: 30.01 "Hg

Humidity: 82%

Dew point: 54 °F

Location of LinzLocation

Historic Weather in Linz — Graph

°F

Linz temperature yesterday

Maximum temperature yesterday: 70 °F (at 5:50 PM)
Minimum temperature yesterday: 57 °F (at 5:20 AM)
Average temperature yesterday: 62 °F

Past Weeks' High & Low Weather Summary

 TemperatureHumidityPressure
High82 °F (Aug 9, 4:20 PM)100% (Aug 5, 11:50 AM)30.15 "Hg (Aug 5, 11:50 AM)
Low52 °F (Aug 15, 2:20 AM)39% (Aug 8, 3:50 PM)29.65 "Hg (Aug 13, 6:20 PM)
Average64 °F78%29.97 "Hg
* Reported Aug 5 5:20 AM — Aug 20 5:50 AM, Linz, Weather by CustomWeather, © 2014

Note: Actual official high and low records may vary slightly from our data, if they occured in-between our weather recording intervals... More about our weather records

Advertising

Linz weather history for previous 24 hours

 ConditionsComfort  
Time TempWeatherWind HumidityBarometerVisibility
5:50 AM
Aug 20
59 °FPassing clouds.5 mph82%30.01 "HgN/A
5:20 AM59 °FPassing clouds.2 mph88%30.01 "HgN/A
4:50 AM59 °FPassing clouds.3 mph94%29.98 "HgN/A
4:20 AM59 °FPassing clouds.2 mph94%29.98 "HgN/A
3:50 AM59 °FPassing clouds.3 mph94%29.98 "Hg5 mi
3:20 AM59 °FOvercast.2 mph94%29.98 "Hg6 mi
2:50 AM59 °FPartly cloudy.3 mph94%29.95 "HgN/A
2:20 AM59 °FOvercast.5 mph94%29.98 "HgN/A
1:50 AM59 °FClear.1 mph94%29.95 "Hg10 mi
1:20 AM61 °FOvercast.2 mph88%29.98 "HgN/A
12:50 AM61 °FPassing clouds.3 mph88%29.95 "HgN/A
12:20 AM59 °FPassing clouds.2 mph94%29.95 "HgN/A
11:50 PM
Aug 19
61 °FOvercast.2 mph88%29.95 "HgN/A
11:20 PM61 °FPartly cloudy.2 mph88%29.95 "HgN/A
10:50 PM61 °FClear.2 mph88%29.95 "Hg10 mi
10:20 PM61 °FPassing clouds.2 mph88%29.95 "HgN/A
9:50 PM63 °FPassing clouds.3 mph83%29.95 "HgN/A
9:20 PM63 °FPassing clouds.1 mph77%29.95 "HgN/A
8:50 PM64 °FPartly sunny.5 mph73%29.95 "HgN/A
8:20 PM64 °FPassing clouds.3 mph78%29.92 "HgN/A
7:50 PM64 °FSunny.3 mph78%29.92 "Hg10 mi
7:20 PM66 °FSunny.2 mph68%29.92 "Hg10 mi
6:50 PM66 °FSunny.2 mph68%29.92 "Hg10 mi
6:20 PM68 °FPartly sunny.2 mph64%29.92 "HgN/A
5:50 PM70 °FPassing clouds.2 mph57%29.92 "HgN/A
5:20 PM68 °FPassing clouds.3 mph60%29.92 "HgN/A
4:50 PM68 °FScattered clouds.3 mph60%29.92 "HgN/A
4:20 PM68 °FScattered clouds.3 mph64%29.92 "HgN/A
3:50 PM68 °FPartly sunny.2 mph60%29.92 "HgN/A
3:20 PM66 °FPartly sunny.5 mph73%29.92 "HgN/A
2:50 PM64 °FPartly sunny.5 mph83%29.92 "HgN/A
2:20 PM63 °FPartly sunny.6 mph88%29.92 "HgN/A
1:50 PM63 °FPartly sunny.7 mph83%29.95 "HgN/A
1:20 PM63 °FPartly sunny.5 mph88%29.95 "HgN/A
12:50 PM63 °FPartly sunny.6 mph88%29.95 "HgN/A
12:20 PM61 °FPartly sunny.2 mph88%29.92 "HgN/A
11:50 AM61 °FPartly sunny.3 mph88%29.95 "HgN/A
11:20 AM61 °FSprinkles. Partly sunny.2 mph83%29.92 "HgN/A
10:50 AM59 °FSprinkles. Partly sunny.2 mph88%29.95 "HgN/A
10:20 AM59 °FPartly sunny.2 mph88%29.95 "HgN/A
9:50 AM59 °FPartly sunny.3 mph88%29.95 "HgN/A
9:20 AM59 °FPartly sunny.2 mph88%29.92 "HgN/A
8:50 AM59 °FPartly sunny.3 mph88%29.92 "HgN/A
8:20 AM59 °FPartly sunny.5 mph94%29.92 "HgN/A
7:50 AM61 °FPartly sunny.5 mph88%29.92 "HgN/A
7:20 AM59 °FFog.3 mph94%29.89 "HgN/A
Weather by CustomWeather, © 2014

See weather overviewHow to use our weather pages